Torna al catalogo

CZ-6A DEB

AttivoPO
NORAD 60987·DEBRIS·🇨🇳 China

Lanciato Aug 6, 2024 da Taiyuan Satellite Launch Center

Loading…

Prossimi Passaggi (prossime 24 ore)

TLE

AggiornatoSource: Space-Track

Epoca: Sep 13, 2026, 12:47 UTC

1 60987U 24140MN  26256.53289720  .00000091  00000-0  37078-4 0  9997
2 60987  88.9890 264.4034 0047809 276.2324  83.3420 14.18084378106686

Traccia CZ-6A DEB in tempo reale con AllMySat

Download on the App Store